Weer een prachtige dag voor een prachtig evenement. Het zonnetje liet het vandaag wel afweten maar de temperatuur was heerlijk.
Voor de vrijwilligers die wat langer moesten staan werd het op den duur wel wat fris.
Onderstaand de uitslagen van de Halve Marathon Purmerend en een link naar wat gemaakte foto's.

 

Halve marathon Purmerend 6 november 2011
Uitslagen Halve marathon Purmerend      
Datum: 6 november 2011      
Purmerend        
afstand: 21.1 km / 10 km / 5 km en 1,5 km jeugd    
Org: AVNeaVolharding      
           
Uitslag 1,5 KM Jeugd      
pos. Nr. Naam vereniging tijd leeftijd
1 359 Bas Hoonhout Nea Volh. 0:05:46 11
2 379 Thomas Arensman Nea Volh. 0:06:00 11
3 358 Jeroen van het Hof Nea Volh. 0:06:08 9
4 370 Linda van der Klei Nea Volh. 0:06:12 10
5 374 Justin Noorlanfer Nea Volh. 0:06:20 13
6 369 Amber van der Klei Nea Volh. 0:06:21 10
7 384 Alissa Schouten Nea Volh. 0:06:28 11
8 380 Evelyn Vletter Nea Volh. 0:06:32 11
9 351 Maaike Uytenboogaard Nea Volh. 0:06:37 10
10 388 Ryan Luton geen 0:06:42 11
11 353 Jarno de Vries Nea Volh. 0:06:43 10
12 354 Timoety Mulder Nea Volh. 0:06:44 9
13 356 Stevan Nijman Nea Volh. 0:06:45 10
14 366 Mila Kuller Nea Volh. 0:06:47 10
15 367 Francis van Rookhuizen Nea Volh. 0:06:53 9
16 373 Milou Jongeneel Nea Volh. 0:07:10 8
17 360 Thomas Wijkstra Nea Volh. 0:07:14 9
18 350 Stijn Uytenboogaard Nea Volh. 0:07:21 6
19 378 Ties Arensman Nea Volh. 0:07:34 7
20 387 Kelly Luton Nea Volh. 0:07:36 9
21 352 Rosalinde Wuck Nea Volh. 0:07:37 9
22 368 Samira van Rookhuizen Nea Volh. 0:07:38 6
23 363 Elis a Babucci Nea Volh. 0:07:41 8
24 362 Milan Diasgago Nea Volh. 0:07:43 6
25 357 Tristan Nijman Nea Volh. 0:07:49 6
26 390 Rydol Frenkel geen 0:07:52 6
27 376 Sophie stokman geen 0:07:53 10
28 365 Robin Kuller Nea Volh. 0:08:06 8
29 377 Timo van de Molen Nea Volh. 0:08:07 5
30 372 Ivar Gordijn geen 0:08:14 8
31 386 Milan de Groot geen 0:08:23 9
32 355 Keira Mulder geen 0:08:34 6
33 361 Tiara Diasgago Nea Volh. 0:08:44 8
34 371 Linda van het Schip geen 0:08:58 8
35 375 Romy Stokman geen 0:08:59 8
36 364 Laura a Babucci Nea Volh. 0:09:02 5
37 389 Maarten Goedhart geen 0:09:35 10
38 385 Cody de Groot geen 0:09:45 5
39 383 Femke van de Linden geen 0:10:19 8
40 382 Tessa van de Linden geen 0:11:14 9
41 381 Annika Vletter Nea Volh. 0:11:37 6
           
Uitslag 5 KM recreatie     leef
pos. Nr. Naam vereniging tijd leeftijd
1 306 Twan de Winter Nea Volh. 0:19:10 14
2 315 Marco Rol Nea Volh. 0:19:42 39
3 319 Arjen Smit geen 0:21:10 40
4 313 Job The geen 0:21:31 16
5 312 Rick Schagen Nea Volh. 0:21:37 19
6 311 Theo Bosschieter geen 0:22:24 46
7 314 Abel Brokkelkamp Nea Volh. 0:23:43 15
8 310 Rene Andringa Nea Volharding 0:24:17 50
9 304 Mike Hogendoorn geen 0:24:55 14
10 300 Monique v.t. Schip geen 0:25:40 33
11 28 Dimitri Stokman geen 0:26:27 43
12 301 Judith van Straaten geen 0:26:51 33
13 307 Jens Tolboom Nea Volh. 0:27:49 12
14 309 Inger Mulder geen 0:28:46 30
15 316 Nicolet Visser Nea Volh. 0:30:26 34
16 305 Mildred Hogendoorn geen 0:31:52 38
17 308 Dorien Schipper geen 0:32:51 30
18 302 Lianne van Wort geen 0:33:09 11
19 317 Ellen Kaijn geen 0:33:13 40
20 318 Diane Stiemer geen 0:33:14 18
21 303 Ilse Munier geen 0:33:17 44
22 17 A. Olij geen 0:33:20 50
           
Uitslag 10 KM recreatie     leef
pos. Nr. Naam vereniging tijd leeftijd
1 54 Mark Slor geen 0:40:02 20
2 58 Menno Merlijn geen 0:40:08 35
3 59 Rob Spijker Nea Volh 0:40:25 56
4 57 Dennis Geertman Nea Volh. 0:40:30 32
5 27 Rob Wassink Nea Volh. 0:42:06 51
6 39 Dennis Hulst Nea volharding 0:43:50 38
7 9 Sander Dreier geen 0:44:21 37
8 6 Egbert Krop Nea Volh. 0:45:04 31
9 12 Vincent Witmond AV Haarlem 0:45:12 19
10 56 Thijs Naeije Running Holland 0:45:14 30
11 14 E. Zelvelder geen 0:45:47 41
12 62 Truus Piels AV Monnickendam 0:45:52 51
13 53 Jan Slor geen 0:46:03 65
14 2 Jelle Uytenboogaard Nea Volh. 0:47:13 50
15 24 Jaap Sietses geen 0:47:23 57
16 43 F. van de Meulen geen 0:47:27 42
17 49 Kenneth Sulkers geen 0:47:51 27
18 34 Jeroen Hogendoorn geen 0:47:59 40
19 26 P. Munier geen 0:48:32 46
20 48 Arnoud Sulkers geen 0:48:39 31
21 22 Peter de Jong geen 0:48:55 42
22 44 Jan Biels geen 0:49:00 56
23 1 Martijn Wuck Nea Volh. 0:49:09 36
24 50 jos Deen Heco 0:49:28 53
25 16 Cornelis Groot Nea Volh. 0:49:50 50
26 42 Frank Donk geen 0:51:30 25
27 19 Edward Gupffert geen 0:51:56 42
28 36 Thom Hersbach LUHV Currimus 0:51:59 20
29 4 Frank van Ketel geen 0:52:24 47
30 29 Rebecca van Mourik geen 0:53:14 17
31 20 Ronald Gupffert geen 0:53:51 47
32 52 B. Rosema geen 0:54:12 40
33 15 Judith Goedhard Nea Volh. 0:54:15 37
34 11 Marga van Dam geen 0:54:33 41
35 30 Peter Lansbergen Le Champion 0:54:53 57
36 63 Chantal Le Fevre geen 0:55:29 20
37 3 Ingrid Nooy geen 0:56:07 41
38 5 Bianca Nijman Nea Volh. 0:56:07 38
39 33 Barry Gnippeling geen 0:56:22 39
40 38 Chantal Spekken Nea volharding 0:56:42 24
41 37 Monica Kassing Nea volharding 0:56:43 31
42 8 Jurrien Krol AV Lycurgus 0:56:47 49
43 25 Marian van Gestel AV Zaanland 0:57:06 56
44 31 Gerrit Hofmeijer Heco 0:57:21 68
45 35 Pino Trovato Nea Volh. 0:57:53 51
46 21 Bert Boumeester geen 0:58:30 43
47 23 Mela Coskun geen 0:59:53 42
48 46 Herman Bosschert Nea Volh. 0:59:59 75
49 60 Kelly van Roosmalen-Tan geen 1:00:28 36
50 64 Fred Rijnhout geen 1:00:35 63
51 32 Harry Kroes geen 1:01:51 44
52 61 Nico Koning Nea Volh. 1:02:20 50
53 7 M. van Rookhuizen Nea Volh. 1:03:25 38
54 55 Lieneke de Koning Nea Volh. 1:03:41 60
55 18 J. Blaauw geen 1:04:36 48
56 13 Juditch Pfaff-Toebak AV Nea Volh 1:04:37 43
57 51 Riet Andringa Nea Volh. 1:04:58 46
58 47 Edwin van Rookhuizen Nea Volh. 1:04:59 41
59 41 Sylvia Tolboom geen 1:05:56 44
60 10 Petra Poelstra geen 1:07:58 41
           
           
           
           
Uitslag 21,1 KM Heren Senior      
pos. Nr. Naam vereniging tijd leeftijd
1 417 Martin Hagens geen 1:32:34 32
2 420 David Leinwand Recte Reijn geen 1:38:51 33
3 404 Alex Kloet geen 1:40:45 26
4 411 Martin Bottinga geen 1:42:39 29
5 405 Jeroen Postma geen 1:50:45 23
           
Uitslag 21,1 KM 35+      
pos. Nr. Naam vereniging tijd leeftijd
1 412 Johan Tuijp geen 1:39:24 42
2 418 Marcel Harelwaard geen 1:46:31 41
3 422 Dennis Kee Nea Volh. 2:03:53 43
           
Uitslag 21,1 KM 45+      
pos. Nr. Naam vereniging tijd leeftijd
1 414 Gerard Jongen Nea Volh. 1:28:34 46
2 403 Bart Witmond geen 1:41:23 47
3 407 Ruud Pos geen 1:43:20 48
4 400 Peter van Mierlo geen 1:46:30 46
           
Uitslag 21,1 KM 55+      
pos. Nr. Naam vereniging tijd leeftijd
1 402 Jan van Zalinge AVVN 1:41:18 56
2 413 Lex de Boer Loopgr. Hoorn 1:50:58 64
3 409 Lesley Pengel geen 2:08:36 62
           
Uitslag 21,1 KM 65+      
pos. Nr. Naam vereniging tijd leeftijd
1 415 Alfred van Cadsandia geen 1:45:26 65
2 406 A. Schuurman geen 2:02:34 74
           
Uitslag 21,1 KM Dames Senior      
pos. Nr. Naam vereniging tijd leeftijd
1 408 M. van Groen geen 1:50:45 23
2 410 Emy Hussem geen 2:01:16 27
           
Uitslag 21,1 KM 35+      
pos. Nr. Naam vereniging tijd leeftijd
1 419 Marjolijn Carol AV Zaanland 1:42:08 44
           
Uitslag 21,1 KM 45+      
pos. Nr. Naam vereniging tijd leeftijd
1 401 Karin van Ketel geen 1:46:29 45

Evenementen

 

Blogs

 

Lust & Leven - Veron LustLust & Leven

Veron Lust over zijn leven als (ultra)loper en ontwikkelingshulp verlener
| Sep 2017 | jun.2017 | feb.2016 |